Roanoke, VA

5:09 PM EST on December 08, 2019 (GMT -0500)
Roanoke Regional-Woodrum

Weather History for KROA - October, 2019

Change the Weather History Date:

Monday, October 14, 2019

  Actual Average Record
Temperature  
Mean Temperature 62 °F 58 °F  
Max Temperature 76 °F 69 °F 86 °F (1941)
Min Temperature 48 °F 47 °F 26 °F (1988)
Degree Days  
Heating Degree Days 3 7  
Month to date heating degree days 23 83  
Since 1 July heating degree days 24 132  
Cooling Degree Days 0 1  
Month to date cooling degree days 73 16  
Year to date cooling degree days 1757 1202  
Growing Degree Days 12 (Base 50)    
Moisture  
Dew Point 43 °F    
Average Humidity 58    
Maximum Humidity 93    
Minimum Humidity 23    
Precipitation  
Precipitation 0.00 in 0.09 in 1.64 in (1942)
Month to date precipitation 0.63 1.29  
Year to date precipitation 32.69 33.31  
Snow  
Snow 0.00 in - - ()
Month to date snowfall 0.0  
Since 1 July snowfall T  
Since 1 September snowfall 0.0  
Snow Depth -    
Sea Level Pressure  
Sea Level Pressure 30.07 in    
Wind  
Wind Speed 4 mph (WNW)    
Max Wind Speed 14 mph    
Max Gust Speed 20 mph    
Visibility 10 miles    
Events      
T = Trace of Precipitation, MM = Missing Value Source: NWS Daily Summary

Daily Weather History Graph

Daily Weather History Graph

Search for Another Location

Airport or City:

Astronomy

Oct. 14, 2019 Rise Set
Actual Time 7:26 AM EDT 6:44 PM EDT
Civil Twilight 7:00 AM EDT 7:10 PM EDT
Nautical Twilight 6:30 AM EDT 7:41 PM EDT
Astronomical Twilight 6:00 AM EDT 8:11 PM EDT
Moon 7:34 PM EDT (10/14) 7:57 AM EDT (10/14)
Length of Visible Light 12h 10m
Length of Day
11h 17m
Waxing Gibbous, 99% of the Moon is Illuminated
Oct 14
Waxing Gibbous
Oct 21
Last Quarter
Oct 27
New
Nov 4
First Quarter
Nov 12
Full

Hourly Weather History & Observations

Time (EDT) Temp. Dew Point Humidity Pressure Visibility Wind Dir Wind Speed Gust Speed Precip Events Conditions
12:02 AM 57.0 °F 52.0 °F 83% 30.05 in 10.0 mi Calm Calm - N/A   Overcast
12:26 AM 55.0 °F 51.1 °F 86% 30.05 in 10.0 mi Calm Calm - N/A   Scattered Clouds
12:42 AM 55.0 °F 52.0 °F 89% 30.04 in 10.0 mi Calm Calm - N/A   Mostly Cloudy
12:54 AM 55.0 °F 52.0 °F 89% 30.03 in 10.0 mi Calm Calm - N/A   Overcast
1:54 AM 55.9 °F 52.0 °F 87% 30.03 in 10.0 mi Calm Calm - N/A   Overcast
2:01 AM 55.4 °F 51.8 °F 88% 30.04 in 10.0 mi NNW 3.5 mph - N/A   Overcast
2:54 AM 55.0 °F 53.1 °F 93% 30.03 in 10.0 mi Calm Calm - N/A   Clear
3:54 AM 55.0 °F 51.1 °F 86% 30.01 in 10.0 mi Calm Calm - N/A   Clear
6:54 AM 48.2 °F 46.4 °F 93% 30.07 in 2.0 mi North 4.6 mph - N/A   Clear
7:14 AM 48.9 °F 46.0 °F 90% 30.07 in 10.0 mi NNW 6.9 mph - N/A   Clear
7:54 AM 53.1 °F 42.1 °F 66% 30.08 in 10.0 mi WNW 9.2 mph - N/A   Clear
8:54 AM 57.0 °F 42.1 °F 57% 30.10 in 10.0 mi West 5.8 mph - N/A   Clear
9:54 AM 60.8 °F 39.2 °F 45% 30.12 in 10.0 mi West 8.1 mph - N/A   Clear
10:54 AM 64.9 °F 39.9 °F 40% 30.13 in 10.0 mi WSW 9.2 mph - N/A   Clear
11:54 AM 68.0 °F 37.0 °F 32% 30.11 in 10.0 mi WNW 8.1 mph - N/A   Clear
12:54 PM 70.0 °F 36.0 °F 29% 30.09 in 10.0 mi WNW 9.2 mph - N/A   Clear
1:54 PM 72.0 °F 37.9 °F 29% 30.06 in 10.0 mi Variable 3.5 mph - N/A   Clear
2:54 PM 73.0 °F 37.9 °F 28% 30.04 in 10.0 mi Variable 3.5 mph 17.3 mph N/A   Clear
3:54 PM 75.0 °F 36.0 °F 24% 30.04 in 10.0 mi Variable 4.6 mph - N/A   Clear
4:54 PM 75.0 °F 35.1 °F 23% 30.04 in 10.0 mi WNW 5.8 mph - N/A   Clear
5:54 PM 73.9 °F 34.0 °F 23% 30.04 in 10.0 mi West 6.9 mph - N/A   Clear
6:54 PM 64.9 °F 39.0 °F 39% 30.05 in 10.0 mi NW 5.8 mph - N/A   Clear
7:54 PM 60.1 °F 37.0 °F 42% 30.07 in 10.0 mi NW 8.1 mph - N/A   Clear
8:54 PM 62.1 °F 37.0 °F 39% 30.09 in 10.0 mi Calm Calm - N/A   Clear
9:54 PM 59.0 °F 36.0 °F 42% 30.11 in 10.0 mi Calm Calm - N/A   Clear
10:54 PM 57.0 °F 39.0 °F 51% 30.12 in 10.0 mi Calm Calm - N/A   Clear
11:54 PM 55.9 °F 39.9 °F 55% 30.12 in 10.0 mi Calm Calm - N/A   Clear